This demonstration page uses our WeatherBlox Daily Observations layout. Learn more.

Left ArrowRight Arrow

Hourly Observations for April 18, 2021

Temp ( °F °C ) Dew Point ( °F °C ) Humidity (%) Winds ( mph kmh ) Pressure ( in mb ) Visibility ( mi km ) Precip ( " mm )
12:15 am 00:15 Clear 43 6 39 4 87 87 N N/A 29.97 1015 10 16 N/A
12:35 am 00:35 Clear 43 6 39 4 87 87 N N/A 29.97 1015 10 16 N/A
12:55 am 00:55 Clear 43 6 37 3 81 81 N N/A 29.97 1015 10 16 N/A
1:15 am 01:15 Clear 41 5 37 3 87 87 N N/A 29.98 1015 10 16 N/A
1:35 am 01:35 Clear 37 3 36 2 93 93 N N/A 29.99 1016 10 16 N/A
1:55 am 01:55 Clear 39 4 39 4 100 100 N N/A 29.98 1015 10 16 N/A
2:15 am 02:15 Clear 39 4 37 3 93 93 N N/A 29.97 1015 10 16 N/A
2:35 am 02:35 Clear 39 4 37 3 93 93 WNW 7 11 29.98 1015 10 16 N/A
2:55 am 02:55 Clear 37 3 36 2 93 93 N N/A 29.98 1015 10 16 N/A
3:15 am 03:15 Clear 37 3 37 3 100 100 N N/A 29.97 1015 10 16 N/A
3:35 am 03:35 Clear 36 2 36 2 100 100 N N/A 29.98 1015 10 16 N/A
3:55 am 03:55 Clear 36 2 36 2 100 100 N N/A 29.98 1015 10 16 N/A
4:15 am 04:15 Clear 36 2 36 2 100 100 N N/A 29.98 1015 10 16 N/A
4:35 am 04:35 Clear 37 3 37 3 100 100 N N/A 29.97 1015 10 16 N/A
4:55 am 04:55 Clear 36 2 36 2 100 100 N N/A 29.98 1015 10 16 N/A
5:15 am 05:15 Clear 34 1 34 1 100 100 N N/A 29.98 1015 10 16 N/A
5:35 am 05:35 Clear 34 1 34 1 100 100 N N/A 29.98 1015 10 16 N/A
5:55 am 05:55 Clear 34 1 34 1 100 100 N N/A 29.98 1015 10 16 N/A
6:15 am 06:15 Clear 34 1 34 1 100 100 N N/A 29.98 1015 10 16 N/A
6:35 am 06:35 Clear 32 undefined 32 undefined 100 100 N N/A 29.99 1015 10 16 N/A
6:55 am 06:55 Clear 34 1 34 1 100 100 N N/A 29.98 1015 10 16 N/A
7:15 am 07:15 Sunny 34 1 34 1 100 100 N N/A 29.98 1015 10 16 N/A
7:35 am 07:35 Sunny 32 undefined 32 undefined 100 100 N N/A 29.99 1015 10 16 N/A
7:55 am 07:55 Sunny 34 1 34 1 100 100 N N/A 30.00 1016 10 16 N/A
8:15 am 08:15 Sunny 39 4 39 4 100 100 N N/A 29.99 1016 10 16 N/A
8:35 am 08:35 Sunny 41 5 41 5 100 100 N N/A 30.00 1016 10 16 N/A
8:55 am 08:55 Sunny 45 7 39 4 81 81 N N/A 29.99 1016 10 16 N/A
9:15 am 09:15 Sunny 45 7 37 3 76 76 N N/A 29.99 1016 10 16 N/A
9:35 am 09:35 Sunny 46 8 37 3 71 71 N N/A 29.99 1015 10 16 N/A
9:55 am 09:55 Sunny 50 10 36 2 58 58 N N/A 29.97 1015 10 16 N/A
10:15 am 10:15 Sunny 52 11 36 2 54 54 N N/A 29.97 1015 10 16 N/A
10:35 am 10:35 Sunny 52 11 34 1 50 50 NW 6 9 29.97 1015 10 16 N/A
10:55 am 10:55 Sunny 54 12 34 1 47 47 N N/A 29.96 1015 10 16 N/A
11:15 am 11:15 Sunny 55 13 34 1 44 44 WNW 12 19 29.96 1015 10 16 N/A
11:35 am 11:35 Sunny 55 13 32 undefined 41 41 WNW 10 17 29.96 1015 10 16 N/A
11:55 am 11:55 Sunny 55 13 34 1 44 44 N N/A 29.96 1015 10 16 N/A
12:15 pm 12:15 Sunny 57 14 34 1 41 41 N N/A 29.96 1014 10 16 N/A
12:35 pm 12:35 Sunny 57 14 34 1 41 41 N N/A 29.96 1014 10 16 N/A
12:55 pm 12:55 Sunny 59 15 36 2 42 42 NNW 10 17 29.94 1014 10 16 N/A
1:15 pm 13:15 Sunny 59 15 34 1 39 39 NNW 9 15 29.93 1014 10 16 N/A
1:35 pm 13:35 Sunny 59 15 36 2 42 42 N N/A 29.93 1014 10 16 N/A
1:55 pm 13:55 Sunny 61 16 34 1 36 36 NNW 7 11 29.92 1013 10 16 N/A
2:15 pm 14:15 Sunny 61 16 36 2 39 39 W 8 13 29.91 1013 10 16 N/A
2:35 pm 14:35 Sunny 61 16 36 2 39 39 WNW 7 11 29.91 1013 10 16 N/A
2:55 pm 14:55 Sunny 63 17 36 2 37 37 NW 9 15 29.91 1013 10 16 N/A
3:15 pm 15:15 Sunny 61 16 34 1 36 36 N N/A 29.90 1013 10 16 N/A
3:35 pm 15:35 Sunny 63 17 34 1 34 34 N N/A 29.90 1012 10 16 N/A
3:55 pm 15:55 Partly Cloudy 63 17 34 1 34 34 N N/A 29.89 1012 10 16 N/A
4:15 pm 16:15 Partly Cloudy 61 16 32 undefined 34 34 N N/A 29.88 1012 10 16 N/A
4:35 pm 16:35 Partly Cloudy 63 17 36 2 37 37 N N/A 29.88 1012 10 16 N/A
4:55 pm 16:55 Partly Cloudy 63 17 36 2 37 37 N N/A 29.87 1011 10 16 N/A
5:15 pm 17:15 Partly Cloudy 59 15 34 1 39 39 N N/A 29.87 1012 10 16 N/A
5:35 pm 17:35 Mostly Cloudy 61 16 34 1 36 36 N N/A 29.87 1012 10 16 N/A
5:55 pm 17:55 Cloudy 61 16 36 2 39 39 N N/A 29.87 1012 10 16 N/A
6:15 pm 18:15 Cloudy 59 15 36 2 42 42 N N/A 29.87 1012 10 16 N/A
6:35 pm 18:35 Cloudy 59 15 37 3 45 45 N N/A 29.87 1012 10 16 N/A
6:55 pm 18:55 Cloudy 59 15 37 3 45 45 N N/A 29.87 1012 10 16 N/A
7:15 pm 19:15 Cloudy 59 15 36 2 42 42 N N/A 29.87 1012 10 16 N/A
7:35 pm 19:35 Cloudy 57 14 37 3 48 48 N N/A 29.88 1012 10 16 N/A
7:55 pm 19:55 Cloudy 55 13 37 3 51 51 N N/A 29.88 1012 10 16 N/A
8:15 pm 20:15 Cloudy 57 14 37 3 48 48 N N/A 29.88 1012 10 16 N/A
8:35 pm 20:35 Cloudy 55 13 39 4 55 55 SW 7 11 29.88 1012 10 16 N/A
8:55 pm 20:55 Cloudy 54 12 41 5 63 63 N N/A 29.89 1012 10 16 N/A
9:15 pm 21:15 Cloudy 52 11 43 6 72 72 N N/A 29.90 1012 10 16 N/A
9:35 pm 21:35 Cloudy 52 11 43 6 72 72 N N/A 29.91 1013 10 16 N/A
9:55 pm 21:55 Cloudy 52 11 43 6 72 72 N N/A 29.91 1013 10 16 N/A
10:15 pm 22:15 Cloudy 52 11 43 6 72 72 N N/A 29.92 1013 10 16 N/A
10:35 pm 22:35 Cloudy 52 11 43 6 72 72 N N/A 29.92 1013 10 16 N/A
10:55 pm 22:55 Cloudy 52 11 43 6 72 72 N N/A 29.92 1013 10 16 N/A
11:15 pm 23:15 Cloudy 50 10 43 6 76 76 N N/A 29.91 1013 10 16 N/A
11:35 pm 23:35 Cloudy 50 10 43 6 76 76 N N/A 29.91 1013 10 16 N/A
11:55 pm 23:55 Cloudy 48 9 43 6 82 82 N N/A 29.91 1013 10 16 N/A

Powered by AerisWeather